 day,  time,  air_temp(C),  RH(%),  ground_temp10cm(C),  ground_temp20cm(C),  ground_temp40cm(C),  precipitation(mm/h),  Solar_Radiation(MJ/m2h),  lack, 
 03/08/01, 01:00,  17.2,  99,  20.6,  19.9,  18.1,   0.0,  0.00, 
 03/08/01, 02:00,  16.4,  99,  20.4,  19.9,  18.1,   0.0,  0.00, 
 03/08/01, 03:00,  16.1,  99,  20.1,  19.8,  18.1,   0.0,  0.00, 
 03/08/01, 04:00,  15.5,  99,  19.9,  19.7,  18.1,   0.0,  0.00, 
 03/08/01, 05:00,  15.2,  99,  19.7,  19.7,  18.2,   0.0,  0.00, 
 03/08/01, 06:00,  15.7,  99,  19.4,  19.6,  18.1,   0.0,  0.09, 
 03/08/01, 07:00,  18.1,  96,  19.3,  19.5,  18.1,   0.0,  0.72, 
 03/08/01, 08:00,  19.1,  92,  19.4,  19.5,  18.2,   0.0,  1.50, 
 03/08/01, 09:00,  21.0,  81,  19.8,  19.4,  18.2,   0.0,  1.81, 
 03/08/01, 10:00,  21.8,  86,  20.2,  19.3,  18.3,   0.0,  2.38, 
 03/08/01, 11:00,  22.7,  71,  20.9,  19.3,  18.3,   0.0,  2.77, 
 03/08/01, 12:00,  24.1,  73,  21.7,  19.4,  18.3,   0.0,  2.70, 
 03/08/01, 13:00,  23.6,  73,  22.5,  19.5,  18.3,   0.0,  2.42, 
 03/08/01, 14:00,  24.0,  76,  22.9,  19.7,  18.3,   0.0,  2.14, 
 03/08/01, 15:00,  24.8,  76,  23.1,  19.9,  18.3,   0.0,  1.58, 
 03/08/01, 16:00,  23.0,  82,  23.3,  20.1,  18.3,   0.0,  1.59, 
 03/08/01, 17:00,  22.1,  83,  23.4,  20.3,  18.3,   0.0,  0.48, 
 03/08/01, 18:00,  21.0,  88,  23.2,  20.4,  18.3,   0.0,  0.44, 
 03/08/01, 19:00,  20.0,  94,  23.0,  20.5,  18.3,   0.0,  0.02, 
 03/08/01, 20:00,  19.5,  98,  22.7,  20.6,  18.3,   0.0,  0.00, 
 03/08/01, 21:00,  19.1,  99,  22.5,  20.7,  18.4,   0.0,  0.00, 
 03/08/01, 22:00,  18.9,  99,  22.2,  20.7,  18.4,   0.0,  0.00, 
 03/08/01, 23:00,  18.5,  99,  22.0,  20.7,  18.4,   0.0,  0.00, 
 03/08/02, 00:00,  17.8,  99,  21.8,  20.7,  18.4,   2.5,  0.00, 
 03/08/02, 01:00,  17.7,  99,  21.5,  20.7,  18.5,   1.5,  0.00, 
 03/08/02, 02:00,  17.5,  99,  21.3,  20.7,  18.5,   0.0,  0.00, 
 03/08/02, 03:00,  17.3,  99,  21.1,  20.6,  18.5,   0.5,  0.00, 
 03/08/02, 04:00,  17.2,  99,  20.9,  20.6,  18.5,   0.0,  0.00, 
 03/08/02, 05:00,  16.4,  99,  20.7,  20.5,  18.6,   0.0,  0.00, 
 03/08/02, 06:00,  16.0,  99,  20.5,  20.4,  18.6,   0.0,  0.06, 
 03/08/02, 07:00,  18.6,  99,  20.3,  20.4,  18.6,   0.0,  0.67, 
 03/08/02, 08:00,  18.5,  99,  20.4,  20.2,  18.5,   0.0,  0.72, 
 03/08/02, 09:00,  19.5,  97,  20.5,  20.1,  18.5,   0.0,  1.14, 
 03/08/02, 10:00,  20.6,  89,  20.8,  20.1,  18.7,   0.0,  1.17, 
 03/08/02, 11:00,  21.3,  89,  21.1,  20.0,  18.7,   0.0,  1.69, 
 03/08/02, 12:00,  21.8,  90,  21.6,  20.0,  18.7,   0.0,  1.75, 
 03/08/02, 13:00,  23.3,  79,  22.0,  20.2,  18.7,   0.0,  2.57, 
 03/08/02, 14:00,  23.0,  80,  22.4,  20.2,  18.7,   0.0,  2.34, 
 03/08/02, 15:00,  23.8,  76,  22.6,  20.3,  18.7,   0.0,  1.51, 
 03/08/02, 16:00,  23.6,  78,  22.7,  20.4,  18.7,   0.0,  1.74, 
 03/08/02, 17:00,  23.6,  75,  23.0,  20.6,  18.7,   0.5,  1.74, 
 03/08/02, 18:00,  21.2,  88,  23.2,  20.7,  18.7,   0.0,  0.85, 
 03/08/02, 19:00,  19.8,  91,  23.1,  20.8,  18.7,   0.0,  0.10, 
 03/08/02, 20:00,  18.5,  96,  22.8,  20.9,  18.8,   0.0,  0.00, 
 03/08/02, 21:00,  18.2,  93,  22.5,  20.9,  18.8,   0.0,  0.00, 
 03/08/02, 22:00,  16.8,  99,  22.2,  21.0,  18.8,   0.0,  0.00, 
 03/08/02, 23:00,  16.8,  94,  21.8,  21.0,  18.8,   0.0,  0.00, 
 03/08/03, 00:00,  15.3,  98,  21.5,  21.0,  18.8,   0.0,  0.00, 
 03/08/03, 01:00,  16.9,  88,  21.2,  20.9,  18.8,   0.0,  0.00, 
 03/08/03, 02:00,  16.4,  91,  20.9,  20.8,  18.9,   0.0,  0.00, 
 03/08/03, 03:00,  16.8,  88,  20.6,  20.7,  18.8,   0.0,  0.00, 
 03/08/03, 04:00,  15.4,  94,  20.3,  20.7,  18.8,   0.0,  0.00, 
 03/08/03, 05:00,  15.9,  92,  20.1,  20.5,  18.9,   0.0,  0.00, 
 03/08/03, 06:00,  17.1,  89,  19.8,  20.4,  18.9,   0.0,  0.08, 
 03/08/03, 07:00,  19.7,  85,  19.7,  20.3,  18.8,   0.0,  0.73, 
 03/08/03, 08:00,  20.5,  81,  19.8,  20.1,  18.9,   0.0,  1.49, 
 03/08/03, 09:00,  21.5,  74,  20.3,  20.1,  19.0,   0.0,  2.18, 
 03/08/03, 10:00,  23.8,  74,  20.8,  20.1,  19.0,   0.0,  2.85, 
 03/08/03, 11:00,  23.4,  71,  21.6,  20.1,  19.0,   0.0,  2.53, 
 03/08/03, 12:00,  24.3,  69,  22.6,  20.1,  19.0,   0.0,  3.17, 
 03/08/03, 13:00,  23.6,  68,  23.5,  20.2,  19.0,   0.0,  2.18, 
 03/08/03, 14:00,  25.5,  60,  23.8,  20.4,  19.0,   0.0,  2.61, 
 03/08/03, 15:00,  25.4,  63,  23.8,  20.7,  19.0,   0.0,  2.60, 
 03/08/03, 16:00,  25.2,  68,  23.8,  20.9,  19.0,   0.0,  2.41, 
 03/08/03, 17:00,  24.3,  68,  24.1,  21.0,  19.0,   0.0,  1.63, 
 03/08/03, 18:00,  22.0,  71,  24.1,  21.2,  19.0,   0.0,  0.76, 
 03/08/03, 19:00,  20.0,  86,  23.8,  21.3,  19.0,   0.0,  0.14, 
 03/08/03, 20:00,  19.4,  94,  23.4,  21.4,  19.0,   0.0,  0.00, 
 03/08/03, 21:00,  18.7,  94,  23.0,  21.5,  19.0,   0.0,  0.00, 
 03/08/03, 22:00,  18.0,  96,  22.6,  21.5,  19.0,   0.0,  0.00, 
 03/08/03, 23:00,  17.7,  97,  22.3,  21.4,  19.0,   0.0,  0.00, 
 03/08/04, 00:00,  17.2,  99,  22.0,  21.4,  19.1,   0.0,  0.00, 
 03/08/04, 01:00,  17.3,  99,  21.6,  21.3,  19.1,   0.0,  0.00, 
 03/08/04, 02:00,  17.8,  99,  21.4,  21.3,  19.1,   0.0,  0.00, 
 03/08/04, 03:00,  17.7,  99,  21.2,  21.2,  19.1,   0.0,  0.00, 
 03/08/04, 04:00,  17.5,  99,  21.0,  21.1,  19.2,   0.0,  0.00, 
 03/08/04, 05:00,  17.8,  98,  20.8,  21.0,  19.2,   0.0,  0.00, 
 03/08/04, 06:00,  18.5,  96,  20.6,  20.9,  19.2,   0.0,  0.05, 
 03/08/04, 07:00,  19.2,  96,  20.5,  20.8,  19.2,   0.0,  0.37, 
 03/08/04, 08:00,  21.4,  87,  20.6,  20.7,  19.2,   0.0,  0.97, 
 03/08/04, 09:00,  22.5,  81,  20.9,  20.6,  19.2,   0.0,  2.39, 
 03/08/04, 10:00,  23.3,  77,  21.5,  20.6,  19.2,   0.0,  2.88, 
 03/08/04, 11:00,  24.3,  73,  22.4,  20.6,  19.2,   0.0,  3.30, 
 03/08/04, 12:00,  25.2,  67,  23.5,  20.6,  19.3,   0.0,  3.37, 
 03/08/04, 13:00,  26.5,  60,  24.7,  20.8,  19.3,   0.0,  3.39, 
 03/08/04, 14:00,  26.5,  58,  25.0,  21.0,  19.2,   0.0,  3.03, 
 03/08/04, 15:00,  26.5,  59,  25.0,  21.3,  19.2,   0.0,  2.44, 
 03/08/04, 16:00,  25.2,  70,  25.0,  21.5,  19.2,   0.0,  1.82, 
 03/08/04, 17:00,  23.0,  83,  25.0,  21.7,  19.3,   0.0,  0.55, 
 03/08/04, 18:00,  22.3,  86,  24.9,  21.9,  19.3,   0.0,  0.26, 
 03/08/04, 19:00,  21.0,  93,  24.6,  22.0,  19.3,   0.0,  0.05, 
 03/08/04, 20:00,  21.0,  92,  24.3,  22.1,  19.3,   0.0,  0.00, 
 03/08/04, 21:00,  20.4,  99,  23.9,  22.1,  19.3,   0.0,  0.00, 
 03/08/04, 22:00,  19.4,  99,  23.5,  22.2,  19.3,  11.0,  0.00, 
 03/08/04, 23:00,  19.9,  99,  23.1,  22.2,  19.4,   1.0,  0.00, 
 03/08/05, 00:00,  19.7,  99,  22.8,  22.1,  19.4,   0.0,  0.00, 
 03/08/05, 01:00,  19.1,  99,  22.6,  22.1,  19.5,   0.0,  0.00, 
 03/08/05, 02:00,  18.5,  99,  22.4,  22.0,  19.5,   0.0,  0.00, 
 03/08/05, 03:00,  18.0,  99,  22.2,  22.0,  19.6,   0.0,  0.00, 
 03/08/05, 04:00,  18.1,  99,  22.0,  21.9,  19.6,   0.0,  0.00, 
 03/08/05, 05:00,  17.9,  99,  21.8,  21.8,  19.7,   0.0,  0.00, 
 03/08/05, 06:00,  17.2,  99,  21.6,  21.7,  19.7,   0.0,  0.06, 
 03/08/05, 07:00,  19.2,  99,  21.4,  21.6,  19.7,   0.0,  0.58, 
 03/08/05, 08:00,  21.3,  97,  21.5,  21.5,  19.7,   0.0,  1.33, 
 03/08/05, 09:00,  22.8,  84,  21.8,  21.4,  19.7,   0.0,  2.09, 
 03/08/05, 10:00,  23.9,  88,  22.3,  21.4,  19.7,   0.0,  2.42, 
 03/08/05, 11:00,  22.8,  95,  23.0,  21.3,  19.7,   0.0,  1.93, 
 03/08/05, 12:00,  23.9,  87,  23.5,  21.4,  19.7,   0.0,  1.75, 
 03/08/05, 13:00,  22.7,  93,  23.9,  21.5,  19.7,   0.0,  1.39, 
 03/08/05, 14:00,  22.4,  94,  24.1,  21.6,  19.7,   0.5,  1.23, 
 03/08/05, 15:00,  21.1,  99,  24.2,  21.7,  19.7,   3.5,  0.58, 
 03/08/05, 16:00,  20.5,  99,  24.1,  21.9,  19.8,   0.0,  0.60, 
 03/08/05, 17:00,  19.8,  99,  24.0,  21.9,  19.8,   0.0,  0.34, 
 03/08/05, 18:00,  20.2,  99,  23.8,  22.0,  19.8,   0.0,  0.31, 
 03/08/05, 19:00,  19.8,  99,  23.6,  22.1,  19.8,   0.0,  0.03, 
 03/08/05, 20:00,  19.2,  99,  23.4,  22.1,  19.8,   0.0,  0.00, 
 03/08/05, 21:00,  19.4,  99,  23.2,  22.1,  19.8,   0.0,  0.00, 
 03/08/05, 22:00,  18.9,  99,  22.9,  22.0,  19.8,   0.0,  0.00, 
 03/08/05, 23:00,  18.4,  99,  22.7,  22.0,  19.9,   0.0,  0.00, 
 03/08/06, 00:00,  17.9,  99,  22.4,  22.0,  19.9,   0.0,  0.00, 
 03/08/06, 01:00,  18.2,  99,  22.2,  21.9,  19.9,   0.0,  0.00, 
 03/08/06, 02:00,  17.5,  99,  22.0,  21.8,  19.9,   0.0,  0.00, 
 03/08/06, 03:00,  16.8,  99,  21.7,  21.8,  19.9,   0.0,  0.00, 
 03/08/06, 04:00,  17.9,  99,  21.5,  21.6,  19.9,   0.0,  0.00, 
 03/08/06, 05:00,  18.0,  99,  21.3,  21.6,  20.0,   0.0,  0.00, 
 03/08/06, 06:00,  17.6,  99,  21.2,  21.5,  20.0,   0.0,  0.07, 
 03/08/06, 07:00,  19.9,  99,  21.1,  21.4,  20.0,   0.0,  0.49, 
 03/08/06, 08:00,  20.3,  97,  21.1,  21.4,  20.0,   0.0,  1.21, 
 03/08/06, 09:00,  22.6,  90,  21.4,  21.3,  20.0,   0.0,  1.55, 
 03/08/06, 10:00,  22.7,  87,  21.8,  21.2,  20.0,   0.0,  2.31, 
 03/08/06, 11:00,  24.1,  84,  22.4,  21.2,  20.0,   0.0,  2.73, 
 03/08/06, 12:00,  22.7,  88,  23.1,  21.2,  20.0,   0.0,  1.26, 
 03/08/06, 13:00,  23.9,  83,  23.5,  21.3,  20.0,   0.5,  1.81, 
 03/08/06, 14:00,  25.3,  76,  23.8,  21.4,  20.0,   0.0,  2.12, 
 03/08/06, 15:00,  25.2,  79,  24.0,  21.6,  20.0,   0.5,  2.71, 
 03/08/06, 16:00,  23.9,  83,  24.2,  21.7,  19.9,   0.0,  1.58, 
 03/08/06, 17:00,  22.8,  87,  24.4,  21.8,  19.9,   0.0,  0.67, 
 03/08/06, 18:00,  20.9,  86,  24.3,  22.0,  19.9,   0.0,  0.16, 
 03/08/06, 19:00,  20.4,  89,  24.1,  22.1,  19.9,   0.0,  0.04, 
 03/08/06, 20:00,  20.0,  95,  23.7,  22.0,  20.0,   0.5,  0.00, 
 03/08/06, 21:00,  19.4,  99,  23.4,  22.2,  20.0,   0.0,  0.00, 
 03/08/06, 22:00,  18.3,  99,  23.1,  22.2,  20.0,   0.0,  0.00, 
 03/08/06, 23:00,  18.5,  92,  22.8,  22.1,  20.0,   0.0,  0.00, 
 03/08/07, 00:00,  18.3,  99,  22.5,  22.0,  20.0,   0.0,  0.00, 
 03/08/07, 01:00,  18.7,  96,  22.3,  22.1,  20.0,   0.0,  0.00, 
 03/08/07, 02:00,  18.2,  99,  22.1,  21.9,  20.0,   0.0,  0.00, 
 03/08/07, 03:00,  18.2,  99,  21.9,  21.8,  20.0,   0.0,  0.00, 
 03/08/07, 04:00,  18.0,  99,  21.8,  21.8,  20.1,   0.0,  0.00, 
 03/08/07, 05:00,  17.9,  99,  21.7,  21.8,  20.1,   0.0,  0.00, 
 03/08/07, 06:00,  18.2,  99,  21.5,  21.6,  20.1,   0.0,  0.04, 
 03/08/07, 07:00,  19.1,  96,  21.4,  21.6,  20.1,   0.0,  0.51, 
 03/08/07, 08:00,  20.8,  89,  21.4,  21.5,  20.1,   0.0,  0.92, 
 03/08/07, 09:00,  19.5,  99,  21.6,  21.5,  20.1,   0.0,  0.95, 
 03/08/07, 10:00,  21.6,  94,  21.9,  21.4,  20.1,   0.0,  2.18, 
 03/08/07, 11:00,  23.1,  91,  22.4,  21.4,  20.1,   0.0,  2.48, 
 03/08/07, 12:00,  24.6,  84,  23.1,  21.4,  20.1,   0.0,  2.14, 
 03/08/07, 13:00,  25.1,  79,  23.8,  21.5,  20.1,   0.0,  2.34, 
 03/08/07, 14:00,  23.3,  86,  24.1,  21.6,  20.1,   0.0,  1.62, 
 03/08/07, 15:00,  22.6,  90,  24.3,  21.7,  20.1,   0.0,  1.54, 
 03/08/07, 16:00,  22.1,  92,  24.3,  21.9,  20.1,   0.0,  0.71, 
 03/08/07, 17:00,  21.5,  91,  24.3,  22.0,  20.1,   0.0,  0.62, 
 03/08/07, 18:00,  20.6,  94,  24.2,  22.1,  20.1,   0.0,  0.26, 
 03/08/07, 19:00,  19.8,  98,  23.9,  22.2,  20.1,   0.0,  0.02, 
 03/08/07, 20:00,  19.2,  99,  23.7,  22.3,  20.1,   0.0,  0.00, 
 03/08/07, 21:00,  19.1,  96,  23.4,  22.2,  20.1,   0.0,  0.00, 
 03/08/07, 22:00,  18.5,  97,  23.1,  22.3,  20.1,   0.0,  0.00, 
 03/08/07, 23:00,  18.2,  98,  22.9,  22.3,  20.1,   0.0,  0.00, 
 03/08/08, 00:00,  17.9,  98,  22.6,  22.2,  20.1,   0.0,  0.00, 
 03/08/08, 01:00,  17.3,  96,  22.4,  22.2,  20.2,   0.0,  0.00, 
 03/08/08, 02:00,  17.0,  92,  22.2,  22.1,  20.2,   0.0,  0.00, 
 03/08/08, 03:00,  17.5,  91,  21.9,  21.9,  20.2,   0.0,  0.00, 
 03/08/08, 04:00,  18.5,  80,  21.7,  21.8,  20.2,   0.0,  0.00, 
 03/08/08, 05:00,  18.5,  81,  21.5,  21.8,  20.2,   0.0,  0.00, 
 03/08/08, 06:00,  17.4,  94,  21.3,  21.7,  20.2,   0.0,  0.07, 
 03/08/08, 07:00,  16.9,  99,  21.1,  21.7,  20.2,   0.0,  0.19, 
 03/08/08, 08:00,  19.2,  92,  21.1,  21.6,  20.2,   0.5,  0.66, 
 03/08/08, 09:00,  20.6,  90,  21.2,  21.5,  20.2,   0.0,  0.96, 
 03/08/08, 10:00,  20.3,  99,  21.4,  21.4,  20.2,   2.0,  1.28, 
 03/08/08, 11:00,  20.3,  99,  21.7,  21.3,  20.2,   0.5,  1.41, 
 03/08/08, 12:00,  22.4,  94,  22.2,  21.3,  20.2,   1.0,  2.76, 
 03/08/08, 13:00,  23.0,  81,  23.1,  21.3,  20.2,   0.0,  3.05, 
 03/08/08, 14:00,  21.9,  84,  23.6,  21.4,  20.2,   0.0,  1.50, 
 03/08/08, 15:00,  24.0,  77,  23.8,  21.5,  20.2,   0.0,  2.33, 
 03/08/08, 16:00,  21.7,  74,  24.0,  21.7,  20.2,   0.0,  1.20, 
 03/08/08, 17:00,  21.4,  74,  24.0,  21.8,  20.2,   0.0,  0.54, 
 03/08/08, 18:00,  20.7,  82,  23.8,  21.8,  20.2,   0.0,  0.18, 
 03/08/08, 19:00,  20.1,  88,  23.5,  21.9,  20.2,   0.5,  0.00, 
 03/08/08, 20:00,  21.4,  76,  23.2,  22.0,  20.2,   0.0,  0.00, 
 03/08/08, 21:00,  21.3,  71,  22.9,  22.0,  20.2,   0.0,  0.00, 
 03/08/08, 22:00,  20.6,  77,  22.6,  22.1,  20.2,   0.0,  0.00, 
 03/08/08, 23:00,  20.5,  72,  22.3,  22.0,  20.2,   0.0,  0.00, 
 03/08/09, 00:00,  19.9,  78,  22.1,  21.9,  20.2,   0.0,  0.00, 
 03/08/09, 01:00,  19.8,  82,  21.8,  21.8,  20.2,   0.0,  0.00, 
 03/08/09, 02:00,  18.1,  97,  21.6,  21.8,  20.3,   1.5,  0.00, 
 03/08/09, 03:00,  18.0,  94,  21.4,  21.7,  20.3,   4.5,  0.00, 
 03/08/09, 04:00,  19.0,  70,  21.1,  21.6,  20.3,   0.5,  0.00, 
 03/08/09, 05:00,  17.8,  77,  20.9,  21.6,  20.3,   0.0,  0.00, 
 03/08/09, 06:00,  18.3,  81,  20.7,  21.5,  20.3,   0.0,  0.00, 
 03/08/09, 07:00,  18.3,  92,  20.5,  21.3,  20.3,   1.0,  0.13, 
 03/08/09, 08:00,  18.5,  94,  20.4,  21.2,  20.3,   2.0,  0.39, 
 03/08/09, 09:00,  19.0,  94,  20.4,  21.0,  20.3,   2.0,  0.48, 
 03/08/09, 10:00,  18.8,  99,  20.4,  20.9,  20.3,   5.5,  0.48, 
 03/08/09, 11:00,  19.0,  99,  20.4,  20.8,  20.3,   4.5,  0.56, 
 03/08/09, 12:00,  18.8,  99,  20.5,  20.8,  20.3,   3.0,  0.33, 
 03/08/09, 13:00,  18.8,  99,  20.6,  20.8,  20.3,   5.5,  0.30, 
 03/08/09, 14:00,  18.8,  99,  20.6,  20.7,  20.3,   5.0,  0.23, 
 03/08/09, 15:00,  18.9,  99,  20.6,  20.7,  20.3,   1.5,  0.15, 
 03/08/09, 16:00,  19.0,  99,  20.6,  20.7,  20.3,  10.5,  0.13, 
 03/08/09, 17:00,  19.0,  99,  20.5,  20.7,  20.3,   9.0,  0.09, 
 03/08/09, 18:00,  18.1,  99,  20.4,  20.6,  20.3,   0.5,  0.00, 
 03/08/09, 19:00,  17.3,  99,  20.4,  20.6,  20.3,   3.0,  0.00, 
 03/08/09, 20:00,  16.8,  99,  20.3,  20.6,  20.3,   4.0,  0.00, 
 03/08/09, 21:00,  16.7,  99,  20.1,  20.5,  20.3,   1.0,  0.00, 
 03/08/09, 22:00,  16.9,  99,  20.0,  20.5,  20.3,   1.5,  0.00, 
 03/08/09, 23:00,  17.1,  99,  19.9,  20.4,  20.3,   0.0,  0.00, 
 03/08/10, 00:00,  17.3,  99,  19.8,  20.4,  20.2,   0.5,  0.00, 
 03/08/10, 01:00,  17.1,  99,  19.8,  20.2,  20.2,   0.0,  0.00, 
 03/08/10, 02:00,  17.3,  99,  19.7,  20.3,  20.2,   1.0,  0.00, 
 03/08/10, 03:00,  17.0,  99,  19.6,  20.2,  20.2,   0.0,  0.00, 
 03/08/10, 04:00,  16.9,  99,  19.6,  20.2,  20.2,   0.0,  0.00, 
 03/08/10, 05:00,  16.1,  99,  19.5,  20.0,  20.1,   0.5,  0.00, 
 03/08/10, 06:00,  16.5,  99,  19.4,  20.0,  20.1,   0.0,  0.00, 
 03/08/10, 07:00,  16.4,  99,  19.3,  20.0,  20.1,   0.0,  0.20, 
 03/08/10, 08:00,  17.7,  99,  19.3,  20.0,  20.1,   0.0,  1.53, 
 03/08/10, 09:00,  20.2,  94,  19.8,  19.9,  20.1,   0.0,  2.25, 
 03/08/10, 10:00,  21.1,  91,  20.3,  19.9,  20.0,   0.0,  1.82, 
 03/08/10, 11:00,  22.6,  86,  20.8,  19.9,  20.0,   0.0,  2.72, 
 03/08/10, 12:00,  24.2,  76,  21.8,  20.0,  20.0,   0.5,  3.54, 
 03/08/10, 13:00,  23.9,  71,  22.9,  20.1,  20.0,   0.0,  2.62, 
 03/08/10, 14:00,  24.5,  69,  23.2,  20.3,  20.0,   0.0,  2.66, 
 03/08/10, 15:00,  24.9,  73,  23.2,  20.5,  19.9,   0.5,  2.60, 
 03/08/10, 16:00,  23.7,  79,  23.3,  20.7,  19.9,   0.0,  0.85, 
 03/08/10, 17:00,  23.2,  89,  23.3,  20.9,  19.9,   0.0,  1.11, 
 03/08/10, 18:00,  22.4,  89,  23.3,  21.1,  19.9,   0.0,  0.88, 
 03/08/10, 19:00,  20.7,  99,  23.2,  21.2,  19.9,   0.0,  0.05, 
 03/08/10, 20:00,  19.9,  97,  23.0,  21.3,  19.9,   0.0,  0.00, 
 03/08/10, 21:00,  19.6,  98,  22.8,  21.4,  19.9,   0.0,  0.00, 
 03/08/10, 22:00,  18.8,  99,  22.5,  21.4,  19.9,   0.0,  0.00, 
 03/08/10, 23:00,  18.7,  99,  22.3,  21.5,  19.9,   0.0,  0.00, 
 03/08/11, 00:00,  18.8,  99,  22.0,  21.4,  19.9,   0.0,  0.00, 
 03/08/11, 01:00,  18.2,  99,  21.8,  21.4,  20.0,   0.0,  0.00, 
 03/08/11, 02:00,  18.0,  99,  21.7,  21.4,  20.0,   0.0,  0.00, 
 03/08/11, 03:00,  17.9,  99,  21.5,  21.3,  20.0,   0.0,  0.00, 
 03/08/11, 04:00,  17.6,  99,  21.3,  21.3,  20.0,   0.0,  0.00, 
 03/08/11, 05:00,  17.7,  99,  21.2,  21.2,  20.0,   0.0,  0.00, 
 03/08/11, 06:00,  17.6,  99,  21.0,  21.2,  20.0,   0.0,  0.00, 
 03/08/11, 07:00,  17.7,  99,  20.9,  21.1,  20.0,   1.0,  0.02, 
 03/08/11, 08:00,  17.7,  99,  20.8,  21.1,  20.0,   0.0,  0.17, 
 03/08/11, 09:00,  18.3,  99,  20.8,  21.0,  20.1,   0.5,  0.40, 
 03/08/11, 10:00,  18.2,  99,  20.8,  20.9,  20.1,   0.0,  0.39, 
 03/08/11, 11:00,  18.2,  99,  20.8,  20.9,  20.1,   1.0,  0.25, 
 03/08/11, 12:00,  19.0,  99,  20.9,  20.8,  20.1,   0.0,  0.64, 
 03/08/11, 13:00,  19.0,  99,  21.0,  20.8,  20.1,   0.0,  0.70, 
 03/08/11, 14:00,  20.0,  99,  21.2,  20.8,  20.1,   0.0,  1.77, 
 03/08/11, 15:00,  18.6,  99,  21.4,  20.8,  20.1,   0.0,  0.33, 
 03/08/11, 16:00,  19.8,  94,  21.5,  20.8,  20.1,   0.0,  0.69, 
 03/08/11, 17:00,  19.6,  96,  21.6,  20.8,  20.1,   0.0,  0.48, 
 03/08/11, 18:00,  19.4,  99,  21.6,  20.9,  20.0,   0.0,  0.28, 
 03/08/11, 19:00,  18.7,  99,  21.6,  20.9,  20.0,   0.0,  0.03, 
 03/08/11, 20:00,  18.5,  99,  21.5,  20.9,  20.0,   0.0,  0.00, 
 03/08/11, 21:00,  18.0,  99,  21.3,  20.9,  20.0,   0.0,  0.00, 
 03/08/11, 22:00,  17.9,  99,  21.2,  20.9,  20.0,   0.0,  0.00, 
 03/08/11, 23:00,  17.5,  99,  21.0,  20.9,  20.0,   1.0,  0.00, 
 03/08/12, 00:00,  17.6,  99,  20.9,  20.8,  20.0,   2.0,  0.00, 
 03/08/12, 01:00,  17.3,  99,  20.7,  20.8,  20.0,   0.0,  0.00, 
 03/08/12, 02:00,  17.3,  99,  20.6,  20.8,  20.0,   0.0,  0.00, 
 03/08/12, 03:00,  17.5,  99,  20.5,  20.8,  20.0,   0.0,  0.00, 
 03/08/12, 04:00,  17.2,  99,  20.4,  20.7,  20.0,   0.0,  0.00, 
 03/08/12, 05:00,  17.7,  99,  20.3,  20.7,  20.0,   0.0,  0.00, 
 03/08/12, 06:00,  16.1,  99,  20.1,  20.6,  20.0,   9.5,  0.00, 
 03/08/12, 07:00,  16.6,  99,  19.8,  20.5,  20.0,   3.5,  0.08, 
 03/08/12, 08:00,  16.9,  99,  19.6,  20.5,  20.0,   2.5,  0.15, 
 03/08/12, 09:00,  17.7,  97,  19.6,  20.3,  20.0,   0.0,  0.30, 
 03/08/12, 10:00,  18.2,  99,  19.6,  20.3,  20.1,   0.0,  1.34, 
 03/08/12, 11:00,  18.7,  99,  20.0,  20.1,  20.0,   0.5,  1.36, 
 03/08/12, 12:00,  18.5,  99,  20.3,  20.2,  20.0,   0.0,  0.93, 
 03/08/12, 13:00,  19.7,  95,  20.6,  20.2,  20.0,   0.0,  1.15, 
 03/08/12, 14:00,  19.5,  98,  20.9,  20.2,  20.0,   0.0,  1.19, 
 03/08/12, 15:00,  20.6,  92,  21.1,  20.3,  20.0,   0.0,  1.22, 
 03/08/12, 16:00,  19.7,  89,  21.4,  20.3,  20.0,   0.0,  1.04, 
 03/08/12, 17:00,  19.2,  92,  21.5,  20.4,  20.0,   0.0,  0.89, 
 03/08/12, 18:00,  17.7,  96,  21.6,  20.5,  20.0,   0.0,  0.36, 
 03/08/12, 19:00,  16.6,  97,  21.5,  20.5,  20.0,   0.0,  0.10, 
 03/08/12, 20:00,  16.1,  99,  21.3,  20.6,  19.9,   0.0,  0.00, 
 03/08/12, 21:00,  15.6,  99,  21.0,  20.6,  19.9,   0.0,  0.00, 
 03/08/12, 22:00,  15.4,  99,  20.8,  20.6,  19.9,   0.0,  0.00, 
 03/08/12, 23:00,  15.3,  99,  20.7,  20.6,  19.9,   0.0,  0.00, 
 03/08/13, 00:00,  15.0,  99,  20.5,  20.6,  19.9,   0.0,  0.00, 
 03/08/13, 01:00,  14.9,  99,  20.3,  20.4,  19.9,   0.0,  0.00, 
 03/08/13, 02:00,  14.7,  99,  20.2,  20.5,  19.9,   0.0,  0.00, 
 03/08/13, 03:00,  14.5,  99,  20.0,  20.4,  19.9,   0.0,  0.00, 
 03/08/13, 04:00,  14.4,  99,  19.9,  20.4,  19.9,   0.0,  0.00, 
 03/08/13, 05:00,  14.3,  99,  19.8,  20.3,  19.9,   0.0,  0.00, 
 03/08/13, 06:00,  14.2,  99,  19.6,  20.2,  19.9,   0.0,  0.00, 
 03/08/13, 07:00,  14.0,  99,  19.5,  20.1,  19.9,   0.0,  0.24, 
 03/08/13, 08:00,  15.3,  99,  19.5,  20.0,  19.9,   0.0,  1.07, 
 03/08/13, 09:00,  16.3,  98,  19.6,  20.0,  19.9,   0.0,  2.14, 
 03/08/13, 10:00,  18.8,  88,  20.1,  20.0,  19.9,   0.0,  2.82, 
 03/08/13, 11:00,  21.2,  82,  20.8,  20.0,  19.9,   0.0,  3.06, 
 03/08/13, 12:00,  23.3,  74,  21.7,  20.0,  19.9,   0.0,  2.89, 
 03/08/13, 13:00,  20.7,  82,  22.5,  20.2,  19.9,   0.0,  1.59, 
 03/08/13, 14:00,  22.9,  70,  22.8,  20.3,  19.8,   0.0,  2.30, 
 03/08/13, 15:00,  22.3,  72,  22.9,  20.5,  19.8,   0.0,  2.15, 
 03/08/13, 16:00,  20.2,  81,  23.0,  20.7,  19.8,   0.0,  0.77, 
 03/08/13, 17:00,  18.9,  86,  23.0,  20.8,  19.8,   0.0,  0.48, 
 03/08/13, 18:00,  18.1,  89,  22.8,  20.9,  19.8,   0.0,  0.25, 
 03/08/13, 19:00,  17.3,  92,  22.6,  21.1,  19.8,   0.0,  0.00, 
 03/08/13, 20:00,  17.0,  97,  22.3,  21.1,  19.8,   0.0,  0.00, 
 03/08/13, 21:00,  16.9,  99,  22.0,  21.2,  19.8,   0.0,  0.00, 
 03/08/13, 22:00,  16.6,  99,  21.8,  21.2,  19.8,   0.0,  0.00, 
 03/08/13, 23:00,  16.4,  97,  21.6,  21.2,  19.8,   0.0,  0.00, 
 03/08/14, 00:00,  15.9,  99,  21.4,  21.1,  19.9,   0.0,  0.00, 
 03/08/14, 01:00,  15.7,  99,  21.2,  21.0,  19.9,   0.0,  0.00, 
 03/08/14, 02:00,  15.6,  99,  20.9,  21.0,  19.9,   0.5,  0.00, 
 03/08/14, 03:00,  14.2,  99,  20.7,  20.9,  19.9,   1.5,  0.00, 
 03/08/14, 04:00,  13.0,  99,  20.5,  20.8,  19.9,   2.5,  0.00, 
 03/08/14, 05:00,  13.9,  99,  20.2,  20.8,  19.9,   2.5,  0.00, 
 03/08/14, 06:00,  14.1,  99,  19.8,  20.7,  19.9,   1.5,  0.00, 
 03/08/14, 07:00,  14.1,  99,  19.6,  20.5,  19.9,   0.5,  0.03, 
 03/08/14, 08:00,  13.7,  99,  19.5,  20.4,  19.9,   0.5,  0.05, 
 03/08/14, 09:00,  13.8,  99,  19.4,  20.4,  19.9,   1.0,  0.17, 
 03/08/14, 10:00,  14.4,  99,  19.3,  20.3,  19.9,   0.5,  0.53, 
 03/08/14, 11:00,  14.4,  99,  19.4,  20.1,  19.9,   0.0,  0.58, 
 03/08/14, 12:00,  14.2,  99,  19.4,  20.0,  19.9,   3.0,  0.28, 
 03/08/14, 13:00,  14.3,  99,  19.3,  20.0,  19.9,   5.0,  0.39, 
 03/08/14, 14:00,  14.3,  99,  19.1,  19.8,  19.9,   4.0,  0.33, 
 03/08/14, 15:00,  14.4,  99,  19.0,  19.9,  19.9,   2.5,  0.28, 
 03/08/14, 16:00,  14.5,  99,  18.9,  19.7,  19.9,   3.5,  0.22, 
 03/08/14, 17:00,  14.8,  99,  18.8,  19.7,  19.9,   2.5,  0.25, 
 03/08/14, 18:00,  14.5,  99,  18.7,  19.6,  19.9,   1.0,  0.09, 
 03/08/14, 19:00,  14.5,  99,  18.7,  19.6,  19.8,   0.5,  0.00, 
 03/08/14, 20:00,  14.9,  99,  18.6,  19.5,  19.8,   0.5,  0.00, 
 03/08/14, 21:00,  15.4,  99,  18.5,  19.5,  19.8,   0.5,  0.00, 
 03/08/14, 22:00,  14.5,  99,  18.4,  19.4,  19.8,   1.0,  0.00, 
 03/08/14, 23:00,  14.5,  99,  18.3,  19.4,  19.8,   0.0,  0.00, 
 03/08/15, 00:00,  14.4,  99,  18.2,  19.3,  19.7,   0.5,  0.00, 
 03/08/15, 01:00,  14.1,  99,  18.2,  19.1,  19.7,   0.5,  0.00, 
 03/08/15, 02:00,  14.1,  99,  18.1,  19.1,  19.7,   1.0,  0.00, 
 03/08/15, 03:00,  14.1,  99,  18.0,  19.0,  19.7,   1.5,  0.00, 
 03/08/15, 04:00,  14.1,  99,  17.9,  19.0,  19.7,   2.5,  0.00, 
 03/08/15, 05:00,  14.1,  99,  17.7,  18.9,  19.6,   5.0,  0.00, 
 03/08/15, 06:00,  14.1,  99,  17.5,  18.8,  19.6,   1.0,  0.00, 
 03/08/15, 07:00,  14.5,  99,  17.5,  18.7,  19.6,   0.0,  0.13, 
 03/08/15, 08:00,  14.5,  99,  17.5,  18.6,  19.5,   0.0,  0.09, 
 03/08/15, 09:00,  15.0,  99,  17.5,  18.6,  19.5,   0.5,  0.37, 
 03/08/15, 10:00,  15.7,  99,  17.6,  18.5,  19.5,   0.0,  0.45, 
 03/08/15, 11:00,  16.1,  99,  17.7,  18.5,  19.5,   0.5,  0.68, 
 03/08/15, 12:00,  17.0,  99,  17.9,  18.4,  19.4,   0.0,  1.64, 
 03/08/15, 13:00,  18.5,  97,  18.4,  18.4,  19.4,   0.0,  2.25, 
 03/08/15, 14:00,  19.0,  96,  18.9,  18.4,  19.4,   0.0,  1.72, 
 03/08/15, 15:00,  20.1,  89,  19.4,  18.5,  19.2,   0.0,  2.02, 
 03/08/15, 16:00,  22.1,  83,  19.8,  18.6,  19.3,   0.0,  2.05, 
 03/08/15, 17:00,  19.9,  88,  20.2,  18.7,  19.2,   0.5,  1.16, 
 03/08/15, 18:00,  18.8,  93,  20.4,  18.8,  19.2,   0.0,  0.62, 
 03/08/15, 19:00,  17.8,  99,  20.4,  19.0,  19.1,   0.0,  0.06, 
 03/08/15, 20:00,  17.4,  99,  20.3,  19.1,  19.1,   0.0,  0.00, 
 03/08/15, 21:00,  17.2,  99,  20.2,  19.3,  19.1,   0.0,  0.00, 
 03/08/15, 22:00,  17.1,  99,  20.0,  19.3,  19.1,   0.0,  0.00, 
 03/08/15, 23:00,  16.9,  99,  19.9,  19.4,  19.2,   0.0,  0.00, 
 03/08/16, 00:00,  16.8,  99,  19.8,  19.4,  19.1,   0.0,  0.00, 
 03/08/16, 01:00,  16.4,  99,  19.7,  19.4,  19.1,   0.0,  0.00, 